[[{"header":{"parameterUnit":"m.s-1","parameterCategory":1,"la1":30.2991,"la2":30.254,"lo1":-89.0895,"lo2":-89.0444,"dy":0.0017,"dx":0.0017,"nx":28,"ny":28,"refTime":"2023-11-17T03:00:00:Z","depth":0,"parameterNumber":2,"parameterNumberName":"U-component_of_WINDS"},"data":[0,0,0,0,0,0,0,0,0,0,0,0,0,0,0,0,0,0,0,0,0,0,0,0,0,0,0,0,0,0,0,0,0,0,0,0,0,0,0,0,0,0,0,0,0,0,0,0,0,0,0,0,0,0,0,0,0,0,1.0241,1.024,0,1.0113,1.0112,1.011,1.0001,1.0,0.9999,0.9997,0.987,0.9867,0.9865,0,0,0,0,0,0,0,0,0,0,0,0,0,1.0395,1.0393,1.0242,1.024,1.0238,1.0113,1.0112,1.011,1.0001,1.0,0.9998,0.9997,0.987,0.9868,0.9865,0,0,0,0,0,0,0,0,0,0,0,0,0,1.0304,1.0392,1.0242,1.0169,1.0161,1.0114,1.0112,1.0109,1.0001,1.0,0.9998,0.9996,0.9871,0.9868,0.9865,0.988,0,0,0.9854,0.9853,0,0,0,0,0,0,0,0,1.0309,1.0298,1.0181,1.0174,1.0165,1.0071,1.0119,1.0033,1.0002,1.0062,0.9997,0.9995,0.9938,0.9929,0.9909,0.9874,0.9869,0.9854,0.9852,0.985,0.9849,0,0,0,0,0,0,0,1.0316,1.0303,1.0191,1.018,1.017,1.0143,1.0129,1.0102,1.0012,1.0057,1.0049,1.0035,0.9934,0.9913,0.9906,0.9867,0.9854,0.9851,0.9849,0.9847,0.9838,0.984,0,0,0,0,0,0,1.0333,1.0309,1.0195,1.0187,1.0234,1.0142,1.0125,1.0103,1.0012,0.9996,1.0036,1.003,0.992,0.991,0.9901,0.9913,0.985,0.9847,0.9845,0.9837,0.9839,0.9841,0,0,0,0,0,0,1.0337,1.0324,1.02,1.0246,1.0228,1.0141,1.0117,1.0102,1.0081,0.9997,0.998,1.0032,0.9918,0.9905,0.9886,0.9907,0.9846,0.9843,0.9835,0.9837,0.984,0.9939,0,0,0,0,0,0,1.0341,1.0326,1.033,1.0247,1.0226,1.0187,1.0119,1.01,1.0075,1.0065,0.9988,0.9973,0.9915,0.9892,0.9883,0.9902,0.984,0.9832,0.9836,0.9839,0.9934,0.9945,0.9955,0,0,0,0,0,1.0347,1.0364,1.0331,1.0318,1.023,1.0188,1.0177,1.0109,1.0077,1.0081,1.0027,0.9976,0.9906,0.989,0.9879,0.9898,0.9831,0.9835,0.9839,0.9929,0.9943,0.9954,0,0,0,0,0,0,1.0453,1.0352,1.0314,1.0304,1.0255,1.017,1.0173,1.0125,1.0086,1.0079,0.9997,0.998,0.997,0.9932,0.9916,0.9908,0.9862,0.9864,0.9934,0.9946,0.9957,0.9967,0.9837,0,0,0,0,0,1.0475,1.0449,1.0362,1.0362,1.0339,1.0261,1.024,1.0192,1.0139,1.0118,1.0063,1.0014,0.9981,0.9961,0.9926,0.9927,0.9909,0.9934,0.9945,0.9954,0.9957,0.9955,0.9966,0.9854,0.9854,0.9854,0,0,1.0521,1.0462,1.0451,1.0382,1.0338,1.0314,1.0244,1.0222,1.0203,1.0115,1.0093,1.0051,0.9991,0.9982,0.9975,0.995,0.9984,0.9959,0.9967,0.9965,0.996,0.9971,0.9981,0.9857,0.9856,0.9856,0,0,1.0592,1.0544,1.0539,1.0497,1.0432,1.0379,1.0378,1.03,1.0268,1.0244,1.0178,1.0155,1.01,1.006,1.0033,1.0089,1.0041,1.008,1.0135,1.0134,1.0143,1.0151,1.0171,1.018,1.0083,1.0083,1.0083,0,1.0657,1.0617,1.0543,1.0524,1.0496,1.0413,1.0408,1.0371,1.0299,1.0282,1.0253,1.0182,1.0137,1.0117,1.0131,1.0111,1.0108,1.0089,1.0148,1.0154,1.016,1.0179,1.0187,1.0088,1.0088,1.0087,1.0087,0,1.0701,1.0675,1.0678,1.0609,1.0581,1.057,1.0494,1.0475,1.0429,1.038,1.0357,1.0299,1.0251,1.0242,1.0198,1.0217,1.0203,1.0163,1.0114,1.0177,1.0194,1.0201,1.0096,1.0094,1.0092,1.0091,0,0,1.0837,1.0726,1.0729,1.0696,1.0618,1.0597,1.0582,1.0533,1.0519,1.0472,1.0458,1.0413,1.0374,1.0344,1.0294,1.0293,1.0342,1.0252,1.0249,1.0272,1.0361,1.0393,1.0402,1.0309,1.031,1.031,1.0366,0,1.0896,1.0863,1.0795,1.0784,1.0759,1.068,1.0666,1.0618,1.0571,1.0544,1.0493,1.0463,1.0414,1.0395,1.039,1.0337,1.0359,1.0332,1.0296,1.0296,1.0315,1.0411,1.0444,1.05,1.0372,1.0373,1.0374,0,1.0961,1.0918,1.0904,1.0827,1.0814,1.0804,1.0754,1.0728,1.0672,1.0638,1.0604,1.0548,1.0529,1.0484,1.0456,1.044,1.0421,1.0392,1.0393,1.0388,1.034,1.041,1.0515,1.0524,1.0383,1.0382,1.0381,0,1.1063,1.1001,1.0984,1.0959,1.0869,1.0864,1.0826,1.0767,1.0743,1.07,1.0683,1.0639,1.0616,1.0583,1.0518,1.0491,1.0498,1.0447,1.0471,1.0473,1.0477,1.0478,1.0583,1.0464,1.0463,1.0463,1.0463,0,1.1137,1.1132,1.1029,1.1019,1.1011,1.0933,1.0928,1.0883,1.0832,1.0813,1.0741,1.0725,1.0639,1.0613,1.0562,1.0548,1.0537,1.0511,1.0497,1.0518,1.0521,1.0505,1.05,1.0465,1.0465,1.0465,1.0464,0,1.125,1.1181,1.1158,1.1074,1.1053,1.1051,1.098,1.0968,1.0917,1.0893,1.0883,1.0804,1.0769,1.07,1.0648,1.0613,1.0611,1.0587,1.063,1.0622,1.065,1.0649,1.075,1.0759,1.0633,1.0635,1.0636,0,1.1303,1.1297,1.1212,1.1194,1.1159,1.113,1.1104,1.1027,1.1004,1.0938,1.0935,1.0894,1.0858,1.0808,1.0746,1.0705,1.068,1.0718,1.0673,1.0694,1.0682,1.0684,1.0683,1.0728,1.073,1.0732,1.0733,0,1.1405,1.137,1.1335,1.1289,1.126,1.1219,1.1175,1.1164,1.1077,1.1054,1.1018,1.099,1.0935,1.0897,1.0847,1.0809,1.0757,1.0747,1.075,1.0772,1.0798,1.0786,1.0659,1.0745,1.0744,1.0743,1.0743,1.0742,1.149,1.1481,1.142,1.1384,1.1342,1.1302,1.1287,1.1233,1.1201,1.115,1.1106,1.1074,1.1017,1.0945,1.091,1.0884,1.0859,1.0864,1.0866,1.0868,1.0878,1.0801,1.0875,1.0874,1.0874,1.0874,1.0873,0,1.1589,1.1545,1.1512,1.1452,1.1424,1.1375,1.1324,1.1304,1.1276,1.1227,1.1193,1.1151,1.1113,1.1048,1.1005,1.0997,1.0972,1.0989,1.0989,1.0982,1.0902,1.0904,1.1009,1.1009,1.1009,1.1009,1.1009,1.1009,1.1637,1.162,1.1578,1.154,1.1496,1.1463,1.1438,1.1402,1.1362,1.1318,1.1286,1.1243,1.1188,1.114,1.1104,1.1085,1.1074,1.1098,1.1073,1.1,1.0987,1.0975,1.0976,1.1096,1.1096,1.1154,1.1155,1.1155]},{"header":{"parameterUnit":"m.s-1","parameterCategory":1,"la1":30.2991,"la2":30.254,"lo1":-89.0895,"lo2":-89.0444,"dy":0.0017,"dx":0.0017,"nx":28,"ny":28,"refTime":"2023-11-17T03:00:00:Z","depth":0,"parameterNumber":3,"parameterNumberName":"V-component_of_WINDS"},"data":[0,0,0,0,0,0,0,0,0,0,0,0,0,0,0,0,0,0,0,0,0,0,0,0,0,0,0,0,0,0,0,0,0,0,0,0,0,0,0,0,0,0,0,0,0,0,0,0,0,0,0,0,0,0,0,0,0,0,-1.2698,-1.2698,0,-1.2736,-1.2736,-1.2737,-1.276,-1.276,-1.276,-1.276,-1.2801,-1.2801,-1.2802,0,0,0,0,0,0,0,0,0,0,0,0,0,-1.2647,-1.2648,-1.2698,-1.2698,-1.2698,-1.2736,-1.2736,-1.2737,-1.276,-1.276,-1.276,-1.276,-1.28,-1.2801,-1.2803,0,0,0,0,0,0,0,0,0,0,0,0,0,-1.2675,-1.2648,-1.2697,-1.2714,-1.2716,-1.2736,-1.2736,-1.2737,-1.276,-1.276,-1.276,-1.276,-1.28,-1.2801,-1.2803,-1.2809,0,0,-1.2807,-1.2808,0,0,0,0,0,0,0,0,-1.2674,-1.2677,-1.2711,-1.2713,-1.2715,-1.2743,-1.2733,-1.2761,-1.276,-1.2743,-1.276,-1.276,-1.2781,-1.2784,-1.2791,-1.2811,-1.2812,-1.2807,-1.2808,-1.2809,-1.2809,0,0,0,0,0,0,0,-1.2672,-1.2676,-1.2713,-1.2712,-1.2714,-1.2721,-1.2725,-1.2739,-1.2761,-1.2745,-1.2746,-1.2751,-1.2783,-1.279,-1.2792,-1.2813,-1.2807,-1.2809,-1.281,-1.281,-1.2841,-1.2841,0,0,0,0,0,0,-1.2667,-1.2674,-1.2712,-1.2714,-1.2694,-1.2722,-1.2726,-1.2734,-1.2761,-1.2765,-1.275,-1.2751,-1.2787,-1.2791,-1.2794,-1.2804,-1.2809,-1.281,-1.2811,-1.2841,-1.2841,-1.2841,0,0,0,0,0,0,-1.2666,-1.267,-1.271,-1.2694,-1.27,-1.2722,-1.2731,-1.2735,-1.2742,-1.2765,-1.277,-1.2753,-1.2787,-1.2792,-1.2805,-1.2805,-1.2811,-1.2812,-1.2841,-1.2841,-1.2841,-1.2823,0,0,0,0,0,0,-1.2664,-1.2669,-1.2671,-1.2694,-1.2701,-1.272,-1.2731,-1.2735,-1.2744,-1.2746,-1.2769,-1.2773,-1.2788,-1.2803,-1.2807,-1.2808,-1.2813,-1.2841,-1.2841,-1.2841,-1.2823,-1.2822,-1.2821,0,0,0,0,0,-1.2662,-1.2664,-1.2671,-1.2675,-1.2703,-1.272,-1.2723,-1.274,-1.2744,-1.2747,-1.2762,-1.2773,-1.2805,-1.2804,-1.2809,-1.281,-1.2842,-1.2841,-1.2841,-1.2824,-1.2822,-1.2821,0,0,0,0,0,0,-1.264,-1.2667,-1.2675,-1.2685,-1.27,-1.2723,-1.2727,-1.2737,-1.2751,-1.2753,-1.2773,-1.2778,-1.279,-1.2801,-1.28,-1.2818,-1.2825,-1.2825,-1.281,-1.2808,-1.2807,-1.2804,-1.2815,0,0,0,0,0,-1.2637,-1.2647,-1.267,-1.2677,-1.2684,-1.2704,-1.2712,-1.2723,-1.274,-1.2746,-1.2762,-1.2778,-1.2793,-1.2801,-1.2815,-1.2826,-1.2832,-1.2829,-1.2828,-1.2826,-1.2827,-1.2835,-1.2834,-1.2841,-1.2841,-1.2841,0,0,-1.2629,-1.2645,-1.265,-1.2673,-1.2686,-1.2697,-1.2709,-1.272,-1.2729,-1.2748,-1.2762,-1.2774,-1.2794,-1.2806,-1.2812,-1.2816,-1.2826,-1.2826,-1.2825,-1.2826,-1.2834,-1.2834,-1.2833,-1.2841,-1.2841,-1.2841,0,0,-1.2621,-1.2634,-1.2641,-1.2654,-1.2674,-1.2687,-1.2689,-1.2712,-1.2721,-1.2735,-1.275,-1.2761,-1.2785,-1.2798,-1.2808,-1.2808,-1.2818,-1.2812,-1.2805,-1.2812,-1.2812,-1.2811,-1.2812,-1.2812,-1.2812,-1.2812,-1.2812,0,-1.2609,-1.2626,-1.2643,-1.2654,-1.2664,-1.2682,-1.269,-1.2702,-1.2725,-1.2732,-1.2736,-1.2767,-1.2781,-1.2798,-1.2798,-1.2805,-1.2809,-1.2809,-1.281,-1.281,-1.281,-1.2811,-1.2811,-1.2811,-1.2811,-1.2811,-1.2812,0,-1.2611,-1.2623,-1.2626,-1.2648,-1.2659,-1.2668,-1.2688,-1.2697,-1.2708,-1.2722,-1.2737,-1.2755,-1.2774,-1.2778,-1.2789,-1.2797,-1.2799,-1.2806,-1.2813,-1.2808,-1.2809,-1.281,-1.281,-1.281,-1.2811,-1.2811,0,0,-1.2589,-1.2622,-1.2623,-1.2634,-1.2658,-1.2667,-1.2678,-1.2696,-1.2704,-1.272,-1.273,-1.2751,-1.2758,-1.277,-1.2782,-1.2789,-1.2789,-1.2796,-1.2797,-1.2794,-1.28,-1.2794,-1.2794,-1.2796,-1.2796,-1.2796,-1.2798,0,-1.2585,-1.2604,-1.2621,-1.2635,-1.2647,-1.2665,-1.2675,-1.2691,-1.2705,-1.2718,-1.2733,-1.2747,-1.2756,-1.2763,-1.277,-1.2787,-1.279,-1.2787,-1.2807,-1.2807,-1.2801,-1.2794,-1.2788,-1.2788,-1.2799,-1.2799,-1.2799,0,-1.2582,-1.2597,-1.2612,-1.2636,-1.2642,-1.265,-1.2669,-1.2681,-1.27,-1.271,-1.2723,-1.2737,-1.2751,-1.2757,-1.2777,-1.2775,-1.2784,-1.2794,-1.2794,-1.2797,-1.2803,-1.2797,-1.2789,-1.2789,-1.28,-1.28,-1.2799,0,-1.2565,-1.259,-1.2602,-1.2611,-1.2639,-1.2645,-1.2657,-1.2676,-1.2687,-1.2704,-1.2711,-1.273,-1.274,-1.2754,-1.2773,-1.2776,-1.2792,-1.2799,-1.2801,-1.2801,-1.2803,-1.2803,-1.2797,-1.2809,-1.2809,-1.2809,-1.2809,0,-1.2558,-1.2567,-1.2595,-1.2602,-1.2613,-1.2634,-1.2644,-1.2658,-1.2676,-1.2687,-1.2705,-1.2715,-1.274,-1.2754,-1.2769,-1.2784,-1.2788,-1.2797,-1.2801,-1.2796,-1.2795,-1.2802,-1.2803,-1.2809,-1.2809,-1.2809,-1.2809,0,-1.2541,-1.256,-1.2575,-1.2601,-1.2608,-1.2614,-1.2637,-1.2646,-1.2661,-1.2676,-1.2681,-1.2705,-1.2722,-1.2743,-1.2767,-1.2778,-1.2792,-1.2797,-1.2785,-1.2787,-1.2788,-1.2788,-1.2787,-1.2788,-1.2799,-1.2799,-1.2799,0,-1.2535,-1.2542,-1.2569,-1.2578,-1.259,-1.2604,-1.2615,-1.2636,-1.2647,-1.2671,-1.2677,-1.2696,-1.2712,-1.274,-1.276,-1.278,-1.2786,-1.2784,-1.2789,-1.2784,-1.2787,-1.2786,-1.2788,-1.2783,-1.2783,-1.2783,-1.2782,0,-1.2524,-1.2533,-1.2548,-1.2566,-1.2579,-1.2595,-1.2611,-1.2618,-1.2643,-1.2654,-1.2672,-1.2685,-1.271,-1.273,-1.2752,-1.2766,-1.2779,-1.2781,-1.2783,-1.2777,-1.277,-1.2775,-1.2782,-1.2781,-1.2781,-1.2781,-1.2781,-1.2781,-1.2513,-1.252,-1.2541,-1.2557,-1.2572,-1.2587,-1.2597,-1.2614,-1.2629,-1.2651,-1.2663,-1.2682,-1.2703,-1.2734,-1.2748,-1.2763,-1.2768,-1.277,-1.277,-1.2771,-1.2769,-1.2767,-1.2768,-1.2768,-1.2768,-1.2768,-1.2768,0,-1.2502,-1.2517,-1.2532,-1.2554,-1.2568,-1.2579,-1.2598,-1.2609,-1.2625,-1.2643,-1.2659,-1.2681,-1.27,-1.2723,-1.2744,-1.2752,-1.2758,-1.2757,-1.2756,-1.276,-1.2764,-1.2761,-1.2751,-1.2751,-1.2751,-1.2751,-1.2751,-1.2751,-1.2498,-1.2512,-1.2525,-1.2547,-1.2562,-1.2579,-1.259,-1.2605,-1.262,-1.2643,-1.2659,-1.2674,-1.2694,-1.2717,-1.2736,-1.2742,-1.2749,-1.2746,-1.2754,-1.2758,-1.2759,-1.276,-1.2757,-1.2747,-1.2747,-1.2748,-1.2748,-1.2748]}]]